069  
FPUS83 KFGF 180031  
OPUFGF  
PRAIRIE TO PINES WEATHER ROUNDUP  
NATIONAL WEATHER SERVICE EASTERN NORTH DAKOTA/GRAND FORKS ND  
700 PM CDT TUE JUL 17 2018  
 
**SATELLITE DATA USED TO AUGMENT SKY COVER AT AUTOMATED STATIONS**  
***** WEATHER ACROSS EASTERN NORTH DAKOTA *****  
 
CITY SKY/WX TMP DP RH WIND PRES REMARKS  
GRAND FORKS FAIR 78 58 49 VRB5 30.08F  
6HR MIN TEMP: 74; 6HR MAX TEMP: 80;  
 
GRND FORKS AFB FAIR 77 55 45 SE5 30.09F  
GRND FORKS NWS N/A 76 58 53 E5 30.06S  
BUXTON N/A N/A N/A N/A SE6 N/A  
DEVILS LAKE FAIR 78 52 40 S5 30.10F  
6HR MIN TEMP: 71; 6HR MAX TEMP: 78;  
 
FARGO FAIR 79 55 43 NE8 30.09F  
6HR MIN TEMP: 75; 6HR MAX TEMP: 81;  
 
WAHPETON ARPT FAIR 79 54 41 CALM 30.09F  

 
 
***** WEATHER ACROSS CENTRAL AND WESTERN NORTH DAKOTA *****  
 
CITY SKY/WX TMP DP RH WIND PRES REMARKS  
JAMESTOWN FAIR 80 60 50 SE9 30.08F  
6HR MIN TEMP: 77; 6HR MAX TEMP: 83;  
 
BISMARCK FAIR 83 65 54 E12 30.05R  
6HR MIN TEMP: 82; 6HR MAX TEMP: 88;  
 
MINOT FAIR 84 52 33 E13 30.05F  
6HR MIN TEMP: 80; 6HR MAX TEMP: 87;  
 
MINOT AFB FAIR 83 52 33 SE8 30.04F  
6HR MIN TEMP: 77; 6HR MAX TEMP: 84; 6HR PCP: TRACE;  
 
GARRISON N/A 78 60 53 E10 30.06F  
6HR MIN TEMP: 76; 6HR MAX TEMP: 81;  
 
WILLISTON FAIR 84 58 40 E12 30.02F  
6HR MIN TEMP: 82; 6HR MAX TEMP: 89;  
 
DICKINSON FAIR 81 65 58 E10 30.03F  
6HR MIN TEMP: 80; 6HR MAX TEMP: 87;  
 
HETTINGER FAIR 84 55 36 SE10 30.04F  
6HR MIN TEMP: 84; 6HR MAX TEMP: 89;  
 

 
 
***** OTHER OBSERVATIONS NORTHEAST NORTH DAKOTA *****  
 
CITY SKY/WX TMP DP RH WIND PRES REMARKS  
WALHALLA FAIR 79 59 50 E5 30.07F  
LANGDON FAIR 77 54 44 SW3 30.10F  
CAVALIER FAIR 77 59 53 S8 30.07S  
GRAFTON FAIR 77 55 47 SE9 30.10S  
CANDO FAIR 77 55 47 S5 30.11F  
FORT TOTTEN N/A 79 55 43 N2 29.95S  
ROLLA FAIR 73 57 56 S7 30.10F  
RUGBY FAIR 77 55 47 S7 30.07F  
***** THE ABOVE OBSERVATIONS ARE NON NWS ARE NOT QUALITY  
CONTROLLED AND MAY MIS-REPORT RAIN FOR SNOW...  

 
 
***** OTHER OBSERVATIONS SOUTHEAST NORTH DAKOTA *****  
 
CITY SKY/WX TMP DP RH WIND PRES REMARKS  
COOPERSTOWN FAIR 77 57 50 SE7 30.10F  
VALLEY CITY MOCLDY 79 59 50 VRB6 30.11F  
OAKES FAIR 79 66 65 E12 30.08F  
GWINNER CLEAR 77 63 61 CALM 30.08F  
SHEYENNE NWR N/A 80 60 49 SE5 29.95S  
BUFFALO N/A 78 51 38 W3 N/A  
WYNDMERE NOT AVBL  
***** THE ABOVE OBSERVATIONS ARE NON NWS ARE NOT QUALITY  
CONTROLLED AND MAY MIS-REPORT RAIN FOR SNOW...  

 
 
***** WEATHER ACROSS NORTHERN MINNESOTA *****  
 
CITY SKY/WX TMP DP RH WIND PRES REMARKS  
FLAG ISLAND FAIR 73 57 56 S6 30.07F  
WARROAD FAIR 73 59 60 SW8 30.09S  
ROSEAU FAIR 75 57 53 W5 30.10S  
HALLOCK FAIR 77 54 44 CALM 30.08S  
THF RVR FALLS FAIR 74 55 51 W5 30.12S  
6HR MIN TEMP: 69; 6HR MAX TEMP: 76;  
 
HALSTAD N/A 76 57 52 SE2 N/A  
FOSSTON FAIR 77 52 41 CALM 30.12F  
BAUDETTE FAIR 74 54 49 NW5 30.10F  
6HR MIN TEMP: 71; 6HR MAX TEMP: 75;  
 
WASKISH FAIR 73 55 53 SW8 30.11S  
CROOKSTON FAIR 75 54 46 CALM 30.11S  

 
***** WEATHER ACROSS CENTRAL AND WEST MINNESOTA *****  
 
CITY SKY/WX TMP DP RH WIND PRES REMARKS  
BEMIDJI FAIR 74 53 47 SW3 30.11F  
6HR MIN TEMP: 69; 6HR MAX TEMP: 75;  
 
PARK RAPIDS FAIR 76 53 44 W5 30.12S  
6HR MIN TEMP: 70; 6HR MAX TEMP: 78;  
 
WADENA FAIR 73 57 56 CALM 30.11F  
DETROIT LAKES FAIR 75 50 41 CALM 30.13S  
MOORHEAD FAIR 79 52 38 CALM 30.10F  
FERGUS FALLS FAIR 77 54 44 CALM 30.10F  
ELBOW LAKE FAIR 76 57 51 CALM 30.11F  
6HR MIN TEMP: 73; 6HR MAX TEMP: 78;  
 
MORRIS MN FAIR 79 61 53 CALM 30.09F  
STAPLES FAIR 75 52 43 CALM 30.11F  
WHEATON FAIR 77 63 61 CALM 30.10F  

 
***** WEATHER ELSEWHERE ACROSS MINNESOTA *****  
 
CITY SKY/WX TMP DP RH WIND PRES REMARKS  
DULUTH FAIR 71 53 52 SE8 30.12S  
6HR MIN TEMP: 69; 6HR MAX TEMP: 74;  
 
INTRNTL FALLS FAIR 74 56 53 NW7 30.10S  
6HR MIN TEMP: 69; 6HR MAX TEMP: 76;  
 
ELY FAIR 72 48 43 W5 30.11S  
CLOQUET FAIR 75 46 35 CALM 30.11F  
BRAINERD FAIR 77 54 44 NE3 30.12F  
6HR MIN TEMP: 74; 6HR MAX TEMP: 78;  
 
HIBBING FAIR 72 50 45 W5 30.11F  
6HR MIN TEMP: 69; 6HR MAX TEMP: 75;  
 
ALEXANDRIA FAIR 80 54 40 NW3 30.14S  
6HR MIN TEMP: 76; 6HR MAX TEMP: 82;  
 
SAINT CLOUD FAIR 78 54 43 VRB3 30.11S  
6HR MIN TEMP: 74; 6HR MAX TEMP: 79;  
 
MINNEAPOLIS FAIR 78 53 41 E6 30.10S  
6HR MIN TEMP: 77; 6HR MAX TEMP: 81;  
 

 
 
***** WEATHER ACROSS SOUTH DAKOTA *****  
 
CITY SKY/WX TMP DP RH WIND PRES REMARKS  
SIOUX FALLS PTSUNNY 81 63 54 S6 30.09S  
6HR MIN TEMP: 81; 6HR MAX TEMP: 83;  
 
BROOKINGS FAIR 81 63 54 SE6 30.10F  
WATERTOWN FAIR 79 61 53 S8 30.09F  
6HR MIN TEMP: 78; 6HR MAX TEMP: 83;  
 
HURON FAIR 83 62 49 SE9 30.05F  
6HR MIN TEMP: 82; 6HR MAX TEMP: 87;  
 
SISSETON N/A 78 63 59 E6 30.08F  
ABERDEEN FAIR 85 65 51 SE7 30.05F  
6HR MIN TEMP: 81; 6HR MAX TEMP: 88;  
 
MITCHELL FAIR 86 62 44 SE12 30.07F  
PIERRE FAIR 86 60 41 SE17 30.00S  
6HR MIN TEMP: 86; 6HR MAX TEMP: 92;  
 
MOBRIDGE FAIR 87 61 41 SE13 30.01S  
RAPID CITY FAIR 76 63 64 SW13 30.06S  
6HR MIN TEMP: 75; 6HR MAX TEMP: 85;  
 

 
 
***** SOME WEATHER IN NEARBY STATES *****  
 
CITY SKY/WX TMP DP RH WIND PRES REMARKS  
GLASGOW MT FAIR 96 46 18 S9 29.93F HX 92  
6HR MIN TEMP: 90; 6HR MAX TEMP: 98;  
 
GREAT FALLS MT FAIR 90 46 21 SW15 30.01F  
6HR MIN TEMP: 83; 6HR MAX TEMP: 90;  
 
CHEYENNE WY FAIR 72 57 59 SE15 30.25R  
6HR MIN TEMP: 63; 6HR MAX TEMP: 86; 6HR PCP: 0.11;  
 
SCOTTSBLUFF NE FAIR 79 68 69 SE18 30.09F  
6HR MIN TEMP: 77; 6HR MAX TEMP: 83;  
 
OMAHA NE PTSUNNY 78 63 59 SE8 30.07F  
6HR MIN TEMP: 69; 6HR MAX TEMP: 79; 6HR PCP: TRACE;  
 
DES MOINES IA FAIR 83 58 42 VRB5 30.06F  
6HR MIN TEMP: 82; 6HR MAX TEMP: 85;  
 
DAVENPORT IA FAIR 81 64 56 N6 30.08S  
6HR MIN TEMP: 81; 6HR MAX TEMP: 86;  
 
CHICAGO IL FAIR 75 57 53 NE12G23 30.07R  
6HR MIN TEMP: 75; 6HR MAX TEMP: 81;  
 
EAU CLAIRE WI FAIR 77 51 40 N6 30.10S  
6HR MIN TEMP: 74; 6HR MAX TEMP: 80;  
 
LA CROSSE WI FAIR 81 54 39 VRB5 30.08F  
6HR MIN TEMP: 78; 6HR MAX TEMP: 83;  
 

 
 
***** SOME NATIONAL WEATHER *****  
 
CITY SKY/WX TMP DP RH WIND PRES REMA  
 
CLICK HERE TO GO TO PREVIOUS BULLETINS.

The Nexlab ND Page
The Nexlab MN Page Main Text Page